Hourly Data Report for October 17, 2017

VICTORIA UNIVERSITY CS
BRITISH COLUMBIA

48°27'25.200" N
123°18'16.600" W
60.10 m
1018598
71783
WYJ

Download Data

Hourly Data (October 2017)
Hourly Data Report for October 17, 2017
TIME
LST
Temp Definition
°C
Dew Point Definition
°C
Rel Hum Definition
%
Precip. Amount Definition
mm

Wind Dir Definition
10's deg

Wind Spd Definition
km/h
Visibility Definition
km
Stn Press Definition
kPa
Hmdx Definition


Wind Chill Definition


Weather Definition


00:00 10.0 9.3 95 0.0 16 3   100.64     LegendNANA
01:00 9.9 9.4 97 0.0 12 1   100.59     LegendNANA
02:00 10.2 9.3 94 0.0 14 3   100.48     LegendNANA
03:00 10.4 9.5 94 0.0 12 1   100.34     LegendNANA
04:00 10.5 9.6 95 0.3 15 5   100.23     LegendNANA
05:00 9.7 9.2 97 1.8 15 5   100.10     LegendNANA
06:00 10.3 9.9 97 1.7 15 7   99.97     LegendNANA
07:00 11.0 10.6 97 1.9 23 8   100.14     LegendNANA
08:00 11.3 10.0 92 0.8 26 9   100.41     LegendNANA
09:00 10.0 8.5 90 0.3 24 13   100.59     LegendNANA
10:00 12.4 8.2 76 0.0 24 13   100.74     LegendNANA
11:00 13.0 6.7 65 0.0 24 16   100.77     LegendNANA
12:00 13.5 4.7 55 0.0 25 14   100.92     LegendNANA
13:00 13.6 5.2 57 0.0 25 15   101.02     LegendNANA
14:00 14.0 4.4 52 0.0 25 14   101.12     LegendNANA
15:00 12.3 3.5 55 0.0 24 13   101.25     LegendNANA
16:00 11.7 3.3 57 0.0 26 9   101.27     LegendNANA
17:00 10.8 3.3 59 0.0 24 9   101.25     LegendNANA
18:00 10.2 3.4 63 0.0 25 7   101.17     LegendNANA
19:00 9.7 3.2 64 0.0 25 5   101.18     LegendNANA
20:00 10.0 2.4 59 0.0 25 7   101.09     LegendNANA
21:00 9.1 2.2 62 0.0 27 4   101.08     LegendNANA
22:00 7.9 2.5 69 0.0 24 4   101.11     LegendNANA
23:00 7.9 5.4 84 0.0 19 4   101.07     LegendNANA

Notes on Data Quality.

Legend

  • E = Estimated
  • M = Missing
  • NA = Not Available*
  • [empty] = Indicates an unobserved value
Date modified: